Theta_e
300 299 299 299 298 298 298 298 298 298 298 297 297 297 298 303 306 306 306 307 307 306 307 307 306 305 308 309 307 305 305 307 306 306 305 306 304 306 308 313 319 331 332 333 336
299 299 299 299 298 298 297 298 298 298 298 297 297 297 299 304 306 306 306 307 307 306 306 306 306 306 307 308 308 304 304 306 306 305 306 305 304 305 305 311 322 325 331 334 335
299 299 298 298 298 298 297 297 298 298 297 297 297 297 300 306 307 306 307 307 307 308 307 307 306 306 305 306 307 307 305 306 307 307 307 304 304 304 304 316 315 320 320 325 331
299 298 298 298 297 297 297 297 298 298 297 297 297 299 304 308 307 305 307 307 308 308 308 307 306 306 305 305 306 305 306 306 306 306 306 304 304 303 304 303 304 309 316 326 327
298 298 298 298 297 297 297 297 298 297 297 297 299 301 306 308 305 307 307 307 307 308 308 307 306 306 305 305 305 305 305 306 306 305 305 305 304 302 303 303 304 308 319 328 324
298 298 298 298 297 297 297 297 298 297 297 298 301 303 309 308 305 307 306 308 307 307 307 307 307 306 305 305 305 305 306 306 306 306 305 305 304 304 303 304 305 318 321 328 326
298 298 298 297 297 297 297 297 297 297 297 300 302 304 309 305 306 306 306 308 308 307 307 307 305 306 305 305 306 305 306 305 306 306 305 305 304 303 305 303 305 316 323 328 328
298 298 297 297 297 297 297 297 297 297 298 301 303 307 308 305 306 306 306 308 309 309 308 308 307 306 307 307 306 307 306 306 306 306 306 304 303 308 310 308 305 320 321 324 326
298 297 297 297 297 297 297 297 297 297 299 302 304 307 306 305 305 307 306 307 309 310 309 308 307 307 308 309 310 307 303 308 307 305 305 305 307 308 311 314 316 319 322 322 325
298 297 297 297 297 297 297 297 297 298 301 303 303 306 305 304 305 307 306 307 309 310 311 309 308 307 307 310 312 309 307 309 308 309 307 307 308 309 308 310 312 319 320 321 322
298 297 297 297 297 297 297 297 300 302 299 299 300 302 304 305 307 307 306 310 311 311 310 310 307 306 308 309 307 307 309 307 307 307 307 309 308 309 308 308 310 317 319 320 321
298 297 297 296 296 297 296 296 296 296 299 300 298 302 303 304 307 307 306 309 310 309 309 307 305 308 310 311 313 308 306 308 309 307 307 307 308 308 307 308 310 313 311 316 320
298 297 296 296 296 296 296 297 297 297 303 300 298 302 302 304 306 306 305 309 309 309 308 308 309 308 310 311 314 314 313 311 310 308 307 309 307 307 306 306 309 310 310 311 315
298 297 296 296 300 296 296 296 298 295 299 301 302 303 304 305 307 306 305 308 309 308 308 309 307 308 309 311 310 316 312 312 311 310 308 307 310 308 306 305 306 307 308 310 311
298 297 296 296 296 296 295 296 296 298 300 300 301 302 304 304 304 306 307 307 307 307 306 307 307 307 309 310 309 314 311 312 310 309 308 306 307 308 306 309 308 307 306 306 310
298 296 296 296 296 295 295 297 296 298 297 299 301 302 304 305 304 305 307 307 307 308 307 308 307 308 307 307 307 309 310 311 311 309 306 306 307 307 307 309 308 306 305 304 306
298 296 296 296 297 295 296 297 297 298 295 295 301 302 303 303 304 305 306 303 301 303 302 305 308 306 307 307 307 307 310 310 308 307 306 305 307 306 306 306 306 305 304 304 303
297 296 296 295 295 295 297 295 294 293 292 297 300 301 303 302 303 304 307 302 303 304 299 302 304 306 306 307 307 306 307 306 308 309 307 305 307 305 305 305 304 303 302 302 303
298 296 296 295 295 295 298 292 296 296 297 298 299 300 299 303 302 304 303 302 303 303 302 301 305 306 306 307 307 308 305 306 306 299 305 306 306 306 305 304 303 302 301 300 301
298 296 296 295 295 296 293 296 293 295 298 300 299 299 297 299 302 303 304 301 303 303 303 305 303 305 306 307 307 308 307 307 304 302 305 307 307 305 306 305 302 301 301 300 300
298 297 298 295 295 296 292 290 290 293 298 299 300 296 301 298 297 301 303 301 300 302 303 305 303 304 305 305 307 306 307 307 305 305 307 306 306 303 305 304 301 301 300 299 299
298 296 296 295 295 295 291 289 295 294 297 298 298 300 300 299 300 299 302 301 299 300 305 304 304 301 307 307 306 306 308 307 306 306 303 307 306 305 303 302 301 300 299 298 298
298 296 296 295 291 289 290 289 294 296 297 297 296 299 300 300 297 301 300 299 298 300 303 303 298 298 301 302 304 306 308 308 306 304 306 304 305 303 303 301 300 299 298 298 297
298 297 297 296 297 294 288 289 290 296 298 298 298 299 299 297 293 296 300 298 298 299 300 302 302 302 304 305 302 305 307 307 307 303 307 304 305 304 302 299 299 298 298 297 297
298 299 297 294 293 294 293 292 294 293 297 298 297 297 297 294 295 294 295 298 298 297 299 296 294 297 301 301 299 301 302 303 307 306 305 305 305 305 302 298 299 298 298 297 297
298 298 296 296 297 295 295 292 296 296 295 295 296 296 297 295 296 294 297 296 297 295 297 296 293 291 290 296 296 298 298 298 300 304 306 306 305 302 303 301 298 298 298 297 297
299 299 299 298 296 293 293 296 296 297 296 297 296 296 297 297 297 297 297 297 298 294 291 291 287 286 289 285 288 289 291 297 300 302 305 305 303 300 298 299 299 298 298 297 297
Wind_Speed
6 7 8 8 8 9 9 9 10 10 11 12 13 13 12 10 5 11 19 20 17 17 16 15 12 14 6 3 3 3 2 4 4 5 7 17 10 16 19 15 12 12 5 14 29
6 7 8 8 8 9 10 11 10 10 11 12 13 12 10 7 4 9 20 20 16 16 14 17 18 17 6 6 3 4 3 4 6 9 10 16 12 15 13 20 8 16 6 18 24
6 7 8 8 8 9 10 11 11 11 11 13 12 9 8 3 5 9 17 17 14 15 16 14 12 13 7 7 6 3 4 5 17 17 16 15 18 18 17 5 16 15 19 13 12
6 7 7 8 9 9 10 11 11 11 11 12 10 8 6 5 3 12 16 14 12 14 12 17 11 8 5 5 10 6 8 13 14 21 14 9 19 21 13 9 25 21 20 13 18
6 7 8 9 9 10 10 11 11 11 12 10 7 6 4 4 5 12 13 14 11 7 11 13 7 5 4 5 11 2 7 15 17 21 18 14 11 11 24 22 21 22 15 8 19
6 7 7 9 9 10 10 10 10 10 10 8 6 5 6 3 7 10 14 14 12 9 7 8 4 4 2 2 3 9 19 23 23 20 16 9 10 14 15 17 18 16 12 2 14
6 7 8 9 9 10 10 10 10 10 7 6 4 3 7 4 8 10 13 10 13 12 5 8 3 3 4 5 8 14 9 14 15 10 4 6 6 5 26 22 13 12 10 5 13
6 7 8 9 9 10 10 10 10 7 5 4 3 4 3 5 6 12 10 8 6 7 11 9 6 4 6 5 7 4 4 6 5 4 4 4 6 12 33 9 14 5 4 7 9
6 8 9 9 9 9 9 9 7 4 4 3 3 4 3 3 8 11 12 7 4 8 10 9 7 3 2 3 2 4 2 7 6 7 3 2 7 21 22 20 15 3 7 10 10
6 7 8 8 9 9 8 7 3 4 3 2 4 1 2 6 9 7 14 5 4 8 4 4 4 2 2 6 7 7 3 4 5 9 14 11 12 15 22 25 19 6 10 14 13
6 6 7 7 8 8 6 3 2 1 5 2 2 3 4 7 4 9 12 4 6 3 1 4 3 4 7 9 2 3 4 7 5 2 9 9 17 17 24 32 29 14 17 17 19
5 5 6 6 6 6 5 3 3 1 2 3 3 4 6 7 3 8 9 3 3 3 6 5 1 9 2 12 7 5 4 3 5 6 8 16 18 14 21 23 23 18 21 17 17
4 4 4 4 3 3 4 5 3 2 1 1 3 3 3 4 2 8 11 3 2 5 5 1 4 12 1 9 15 7 2 1 2 3 3 3 11 18 12 20 17 21 18 15 20
4 3 3 2 1 2 2 4 3 2 4 4 2 3 5 4 1 7 8 4 1 3 5 4 5 6 7 5 4 4 5 6 6 2 3 2 3 11 10 8 12 16 22 21 16
5 3 2 1 1 0 2 1 1 2 4 3 2 4 4 2 4 4 8 4 2 3 3 4 7 7 4 4 2 5 10 5 5 6 3 8 5 6 2 8 10 15 15 18 24
4 3 2 2 1 1 1 1 1 6 3 3 3 5 3 3 2 6 3 4 1 3 2 3 1 2 2 10 6 8 5 7 0 3 5 7 3 9 8 8 10 17 18 21 21
5 5 3 3 1 1 1 1 5 5 5 4 0 3 2 4 4 5 3 5 3 4 4 6 1 4 4 5 5 8 4 2 4 5 1 3 8 1 4 6 11 12 16 21 21
7 6 5 3 3 2 1 4 4 3 5 2 1 1 2 3 1 4 3 3 5 4 3 2 5 4 5 2 3 4 3 3 3 2 0 6 3 2 4 13 15 17 17 18 20
9 7 6 5 4 3 2 4 7 6 4 6 2 4 4 1 0 3 3 2 2 4 4 2 5 4 0 1 0 6 4 3 4 3 4 2 2 2 4 6 13 15 18 18 18
11 7 6 8 7 5 4 5 2 2 2 2 4 2 3 3 2 2 2 3 1 1 1 3 3 3 4 4 2 2 4 4 3 2 2 2 4 4 5 5 5 9 13 15 16
13 5 7 11 9 3 3 6 2 4 1 3 4 3 3 4 3 2 3 1 1 2 4 1 4 5 4 4 2 6 4 3 2 3 3 4 3 6 7 7 7 9 11 13 16
12 2 10 15 3 1 2 4 2 3 3 1 2 2 5 5 3 1 3 0 2 0 0 1 2 1 2 3 3 1 4 2 3 3 0 2 3 4 8 15 15 12 14 13 14
12 5 14 19 3 2 1 3 2 4 4 4 3 2 1 4 1 4 3 1 1 0 3 1 2 2 6 5 3 1 2 3 0 2 2 4 4 4 13 14 16 16 13 13 14
12 3 4 12 3 6 5 4 3 7 2 4 4 4 3 0 4 4 4 3 3 1 1 0 2 3 5 2 1 2 3 4 2 2 2 4 6 6 7 8 15 16 14 13 13
13 6 9 4 6 5 6 6 4 4 5 8 1 6 6 3 1 3 2 3 2 2 1 3 3 0 3 1 1 3 4 6 4 5 4 3 9 13 12 10 20 19 16 14 12
15 8 9 9 8 12 7 6 10 4 8 5 5 7 7 6 6 8 6 4 4 4 4 0 2 2 4 4 3 4 8 7 6 5 6 5 6 7 22 22 21 23 20 16 12
20 16 7 13 8 6 6 7 10 11 11 7 12 6 7 6 9 6 6 5 8 7 5 4 5 3 5 4 5 6 8 10 6 6 6 6 6 13 9 20 25 23 19 17 14
Wind_Direction
340 349 350 352 353 352 355 354 352 355 356 355 355 355 358 12 76 28 12 3 356 354 1 355 0 8 83 47 8 360 34 248 299 22 327 345 342 338 333 320 337 2 219 214 168
335 341 341 345 347 348 349 349 348 352 353 352 349 353 359 19 86 21 0 357 356 357 7 9 8 4 25 14 7 132 189 241 326 329 327 328 324 340 343 327 44 42 14 157 166
328 333 334 337 342 343 344 344 346 350 351 348 349 357 2 52 75 1 352 358 4 23 31 8 3 7 9 352 0 304 234 303 299 313 333 316 316 340 345 327 14 350 344 355 195
320 322 329 332 337 336 340 340 340 347 348 348 355 4 25 42 69 346 352 4 16 24 8 360 7 351 359 1 347 345 325 318 312 315 326 309 320 323 309 290 317 315 326 315 199
315 320 329 327 330 331 334 335 338 344 344 349 359 9 72 61 36 352 354 5 7 36 13 360 7 0 25 345 336 278 304 324 314 318 317 302 308 303 300 312 326 320 322 300 194
306 317 319 320 326 328 330 335 336 340 341 350 360 21 90 83 360 359 359 11 16 36 44 344 321 317 139 40 343 303 307 302 295 287 291 301 308 317 293 299 325 332 341 155 178
309 312 318 321 326 324 332 333 335 337 345 360 13 85 83 43 0 3 353 24 26 29 33 340 358 37 19 356 320 299 296 293 275 250 245 337 312 275 320 283 296 328 14 163 170
305 309 316 320 326 328 334 335 338 345 1 16 30 115 83 9 359 4 4 25 5 14 14 340 359 320 21 322 322 324 322 330 304 161 237 114 295 3 350 333 292 26 354 116 106
303 310 318 324 329 331 335 338 343 9 10 51 56 73 86 357 342 357 6 4 11 0 328 329 302 274 312 11 348 44 327 344 348 46 26 52 338 346 354 56 29 49 49 49 74
302 316 323 330 333 337 339 341 14 59 50 110 46 14 50 331 321 358 356 351 351 343 316 269 246 306 280 33 13 356 14 24 23 357 39 38 17 359 18 39 16 93 84 69 70
307 321 331 336 338 343 351 353 26 48 40 32 344 324 333 3 46 10 355 348 343 323 358 172 22 320 355 92 166 4 74 55 9 56 76 58 51 19 11 24 12 29 76 74 65
313 323 337 340 342 355 5 55 48 339 360 358 316 348 341 12 10 340 4 30 8 335 20 17 329 319 33 111 104 80 86 1 60 31 86 63 51 35 21 9 3 31 39 62 71
303 319 330 335 343 360 41 52 36 68 103 15 346 332 356 20 20 341 4 30 356 21 5 165 278 329 9 101 75 52 88 170 163 287 282 299 34 24 12 21 34 31 41 55 64
283 307 320 319 318 35 36 30 55 46 78 340 20 348 358 12 38 355 5 35 284 47 339 268 346 358 323 99 136 133 240 172 169 220 24 92 71 26 360 352 32 16 29 47 62
273 284 271 279 248 26 350 23 358 113 32 311 333 327 7 29 320 356 19 36 44 316 74 273 341 360 336 342 326 200 192 188 139 81 31 3 83 346 117 34 27 41 35 42 61
260 240 233 243 236 247 315 316 107 42 263 348 323 340 331 24 23 343 30 24 353 356 298 274 294 122 240 295 244 280 204 201 343 110 43 336 91 8 21 19 22 28 33 38 51
238 212 210 230 200 230 246 270 41 118 354 293 289 5 335 351 353 18 69 18 71 60 352 327 354 350 0 341 336 4 52 23 357 33 102 311 61 334 27 56 55 47 38 43 52
219 206 200 200 220 204 265 50 90 236 212 215 222 258 96 359 329 9 74 32 23 46 76 80 343 8 352 87 257 309 81 139 155 107 172 14 71 289 101 79 67 64 59 55 56
207 203 198 183 192 200 308 58 201 196 172 152 101 75 330 21 31 19 96 156 71 29 140 88 287 328 62 234 61 331 47 170 106 48 81 134 40 24 107 75 61 55 55 51 51
198 194 190 184 174 171 78 251 192 219 136 151 148 140 172 265 45 58 150 275 153 89 33 166 343 287 302 0 312 302 286 64 359 84 52 204 175 195 167 132 81 63 65 63 56
183 184 189 175 166 184 159 221 228 210 191 150 188 131 188 189 161 246 196 279 65 309 318 173 126 292 40 15 340 347 346 34 123 143 150 158 239 197 163 149 129 105 83 72 70
176 155 174 166 127 24 161 189 149 178 204 171 91 136 173 166 155 226 198 206 143 269 143 340 111 283 227 199 179 136 292 305 119 263 304 138 244 143 135 137 129 118 108 94 84
169 137 171 176 159 226 337 321 222 161 205 173 185 172 186 178 130 163 195 195 157 44 187 305 299 33 345 357 347 292 249 285 206 78 232 127 244 167 131 135 139 130 120 111 106
162 128 155 199 228 139 138 241 240 208 244 180 165 129 91 210 6 183 167 185 202 154 183 348 159 185 191 197 171 297 256 249 164 108 225 205 162 199 170 149 144 138 130 123 113
179 196 181 185 235 178 165 153 149 184 217 201 292 193 163 132 79 239 272 134 195 206 189 121 174 334 283 265 300 240 263 287 252 234 178 230 177 193 181 171 159 149 143 138 128
169 166 173 165 152 155 181 214 178 159 157 228 205 203 183 163 187 195 151 186 196 179 179 99 235 90 302 334 353 271 264 258 260 269 267 212 236 162 175 163 160 158 156 150 144
184 186 182 166 145 135 207 193 194 151 214 196 197 135 197 204 128 102 136 129 169 155 162 135 126 87 269 337 316 331 229 203 189 208 182 206 206 149 155 162 166 163 164 160 157